Terminal Aerodrome Forecast
Issued by NWS Jackson, MS

Home | Current Version | Previous Version | Text Only | Print | Product List | Glossary On
Versions: 1 2 3 4 5 6 7 8 9 10 11 12 13 14 15 16 17 18
000
FTUS44 KJAN 261029 AAB
TAFGLH
TAF AMD
KGLH 261029Z 2610/2706 18010KT P6SM BKN016 OVC023
     FM261400 19009KT P6SM BKN025
     FM261800 18009KT P6SM VCTS BKN050CB
     FM270300 17008KT P6SM BKN100=

USA.gov is the U.S. government's official web portal to all federal, state and local government web resources and services.